FW9226 Weather Reports


Display with metric or nautical units.
time (UTC)temp
F
wind
direction
speed
MPH
gust
MPH
rain 1hr
in
rain 24hr
in
rain mn
in
humidity
%
barometer
mb
20260905215003 71 194 2.0 6.0 0.00 0.00 0.00 43 1017.8
20260905213007 70 131 3.0 9.0 0.00 0.00 0.00 45 1017.8
20260905212504 71 114 3.0 9.0 0.00 0.00 0.00 43 1017.8
20260905212002 71 69 3.0 9.0 0.00 0.00 0.00 43 1017.8
20260905211505 71 139 3.0 9.0 0.00 0.00 0.00 42 1017.8
20260905211004 71 266 2.0 7.0 0.00 0.00 0.00 43 1017.9
20260905210507 71 312 2.0 7.0 0.00 0.00 0.00 44 1017.8
20260905210000 70 229 2.0 6.0 0.00 0.00 0.00 45 1017.8
20260905205502 70 120 2.0 6.0 0.00 0.00 0.00 44 1017.9
20260905205003 71 175 2.0 5.0 0.00 0.00 0.00 43 1017.8
20260905204507 72 236 2.0 5.0 0.00 0.00 0.00 44 1017.9
20260905204007 72 208 2.0 12.0 0.00 0.00 0.00 43 1017.9
20260905203507 72 214 3.0 12.0 0.00 0.00 0.00 43 1017.9
20260905203004 71 245 3.0 9.0 0.00 0.00 0.00 44 1017.9
20260905202504 71 238 2.0 8.0 0.00 0.00 0.00 44 1017.7
20260905202006 71 222 2.0 9.0 0.00 0.00 0.00 46 1017.8
20260905201505 70 240 3.0 9.0 0.00 0.00 0.00 46 1017.8
20260905201007 69 240 3.0 11.0 0.00 0.00 0.00 46 1017.7
20260905200508 69 151 2.0 11.0 0.00 0.00 0.00 46 1017.8
20260905200008 69 145 2.0 9.0 0.00 0.00 0.00 47 1017.8
20260905195506 70 108 2.0 8.0 0.00 0.00 0.00 46 1017.9
20260905195005 71 272 2.0 5.0 0.00 0.00 0.00 45 1017.8
20260905194009 72 207 3.0 10.0 0.00 0.00 0.00 44 1017.9
20260905193503 71 64 3.0 13.0 0.00 0.00 0.00 45 1017.8
20260905193004 71 217 3.0 13.0 0.00 0.00 0.00 44 1017.9
20260905192506 70 218 3.0 11.0 0.00 0.00 0.00 45 1017.9
20260905192019 71 301 2.0 10.0 0.00 0.00 0.00 45 1018.1
20260905191505 71 160 2.0 6.0 0.00 0.00 0.00 44 1018.0
20260905191005 71 140 2.0 7.0 0.00 0.00 0.00 43 1018.1
20260905190504 72 141 2.0 8.0 0.00 0.00 0.00 44 1018.0
20260905190003 71 133 2.0 8.0 0.00 0.00 0.00 46 1018.1
20260905185504 71 249 2.0 11.0 0.00 0.00 0.00 46 1018.1
20260905185008 71 214 3.0 11.0 0.00 0.00 0.00 45 1018.0
20260905184504 71 146 2.0 7.0 0.00 0.00 0.00 45 1018.0
20260905184007 71 295 1.0 5.0 0.00 0.00 0.00 47 1018.0
20260905183504 69 255 2.0 5.0 0.00 0.00 0.00 48 1018.0
20260905183006 69 155 2.0 5.0 0.00 0.00 0.00 47 1018.1
20260905182507 69 59 1.0 6.0 0.00 0.00 0.00 49 1018.1
20260905182007 68 2 2.0 7.0 0.00 0.00 0.00 50 1018.0
20260905181503 67 206 2.0 7.0 0.00 0.00 0.00 51 1018.0
20260905180506 67 217 1.0 5.0 0.00 0.00 0.00 52 1017.8
20260905180010 67 200 1.0 4.0 0.00 0.00 0.00 53 1017.9
20260905175504 65 75 1.0 5.0 0.00 0.00 0.00 55 1017.8
20260905175005 63 215 2.0 5.0 0.00 0.00 0.00 58 1017.8
20260905174505 62 146 1.0 4.0 0.00 0.00 0.00 59 1017.8
20260905174004 62 134 2.0 4.0 0.00 0.00 0.00 58 1017.8
20260905173509 62 134 1.0 6.0 0.00 0.00 0.00 59 1017.8
20260905172504 63 166 1.0 3.0 0.00 0.00 0.00 59 1017.6
20260905172006 63 136 1.0 3.0 0.00 0.00 0.00 58 1017.6
20260905171505 63 123 1.0 3.0 0.00 0.00 0.00 57 1017.5
20260905171005 64 176 1.0 4.0 0.00 0.00 0.00 59 1017.4
20260905170505 63 115 1.0 4.0 0.00 0.00 0.00 57 1017.4
20260905165007 63 217 0.0 2.0 0.00 0.00 0.00 60 1017.3
20260905164004 63 141 0.0 1.0 0.00 0.00 0.00 61 1017.3
20260905163504 63 142 0.0 2.0 0.00 0.00 0.00 61 1017.3
20260905163004 63 150 1.0 3.0 0.00 0.00 0.00 61 1017.3
20260905162504 63 98 1.0 3.0 0.00 0.00 0.00 61 1017.3
20260905162003 63 215 1.0 2.0 0.00 0.00 0.00 62 1017.2
20260905161502 62 210 0.0 2.0 0.00 0.00 0.00 64 1017.3
20260905161007 62 165 0.0 2.0 0.00 0.00 0.00 64 1017.2
20260905160504 61 161 0.0 0.0 0.00 0.00 0.00 65 1017.2
20260905160007 60 162 0.0 1.0 0.00 0.00 0.00 65 1017.1
20260905155504 60 158 0.0 1.0 0.00 0.00 0.00 67 1017.2
20260905155005 60 229 0.0 1.0 0.00 0.00 0.00 66 1017.1
20260905154503 59 271 0.0 1.0 0.00 0.00 0.00 67 1017.0
20260905154005 58 272 0.0 1.0 0.00 0.00 0.00 69 1017.1
20260905153504 57 272 0.0 1.0 0.00 0.00 0.00 70 1017.1
20260905153007 56 273 0.0 0.0 0.00 0.00 0.00 72 1017.1
20260905152504 56 273 0.0 0.0 0.00 0.00 0.00 74 1017.1
20260905152003 55 273 0.0 0.0 0.00 0.00 0.00 75 1017.1
20260905151503 55 273 0.0 0.0 0.00 0.00 0.00 75 1017.0
20260905151005 54 273 0.0 1.0 0.00 0.00 0.00 74 1017.1
20260905150503 55 272 0.0 0.0 0.00 0.00 0.00 73 1017.1
20260905150007 55 272 0.0 0.0 0.00 0.00 0.00 73 1017.0
20260905145005 55 272 0.0 0.0 0.00 0.00 0.00 72 1016.9
20260905144504 55 272 0.0 0.0 0.00 0.00 0.00 72 1016.9
20260905144005 54 272 0.0 1.0 0.00 0.00 0.00 71 1016.8
20260905143503 54 272 0.0 1.0 0.00 0.00 0.00 71 1016.9
20260905143004 54 272 0.0 1.0 0.00 0.00 0.00 71 1016.9
20260905142503 54 272 0.0 0.0 0.00 0.00 0.00 70 1016.9
20260905142002 54 272 0.0 1.0 0.00 0.00 0.00 70 1016.8
20260905141007 54 272 0.0 1.0 0.00 0.00 0.00 70 1016.6
20260905140503 54 272 0.0 1.0 0.00 0.00 0.00 69 1016.7
20260905140007 54 272 0.0 0.0 0.00 0.00 0.00 69 1016.6
20260905135503 54 272 0.0 0.0 0.00 0.00 0.00 68 1016.5
20260905133004 55 272 0.0 1.0 0.00 0.00 0.00 67 1016.5
20260905132503 55 272 0.0 1.0 0.00 0.00 0.00 67 1016.5
20260905131005 54 275 0.0 1.0 0.00 0.00 0.00 67 1016.3
20260905130503 54 275 0.0 0.0 0.00 0.00 0.00 68 1016.3
20260905130008 54 275 0.0 0.0 0.00 0.00 0.00 68 1016.4
20260905125505 54 275 0.0 1.0 0.00 0.00 0.00 68 1016.3
20260905124503 53 275 0.0 1.0 0.00 0.00 0.00 69 1016.5
20260905124004 53 275 0.0 1.0 0.00 0.00 0.00 70 1016.5
20260905123505 53 275 0.0 1.0 0.00 0.00 0.00 69 1016.5
20260905123004 53 275 0.0 1.0 0.00 0.00 0.00 68 1016.5
20260905122504 53 274 0.0 1.0 0.00 0.00 0.00 69 1016.5
20260905121507 52 274 0.0 0.0 0.00 0.00 0.00 70 1016.6
20260905121003 52 274 0.0 1.0 0.00 0.00 0.00 70 1016.6
20260905120503 52 274 0.0 0.0 0.00 0.00 0.00 70 1016.6
20260905115504 52 274 0.0 0.0 0.00 0.00 0.00 69 1016.7
20260905115002 52 274 0.0 0.0 0.00 0.00 0.00 69 1016.8
20260905114504 52 274 0.0 1.0 0.00 0.00 0.00 69 1016.7
20260905114003 53 274 0.0 1.0 0.00 0.00 0.00 69 1016.7
20260905113504 53 274 0.0 0.0 0.00 0.00 0.00 69 1016.7
20260905113003 52 274 0.0 0.0 0.00 0.00 0.00 69 1016.7
20260905112505 53 274 0.0 1.0 0.00 0.00 0.00 68 1016.8
20260905112004 53 274 0.0 0.0 0.00 0.00 0.00 68 1016.8
20260905111504 53 274 0.0 1.0 0.00 0.00 0.00 68 1016.8
20260905111008 52 274 0.0 1.0 0.00 0.00 0.00 68 1016.7
20260905105503 52 274 0.0 0.0 0.00 0.00 0.00 68 1016.9
20260905104503 52 274 0.0 1.0 0.00 0.00 0.00 68 1017.0
20260905103503 52 274 0.0 0.0 0.00 0.00 0.00 69 1017.0
20260905102504 52 274 0.0 0.0 0.00 0.00 0.00 68 1017.0
20260905102003 52 274 0.0 0.0 0.00 0.00 0.00 67 1017.0
20260905101501 53 274 0.0 1.0 0.00 0.00 0.00 67 1017.1
20260905101005 53 274 0.0 1.0 0.00 0.00 0.00 67 1017.1
20260905100008 52 274 0.0 0.0 0.00 0.00 0.00 68 1017.0
20260905095003 52 274 0.0 1.0 0.00 0.00 0.00 68 1017.0
20260905094503 51 274 0.0 1.0 0.00 0.00 0.00 69 1017.1
20260905094001 51 274 0.0 0.0 0.00 0.00 0.00 69 1017.1
20260905093503 51 274 0.0 1.0 0.00 0.00 0.00 69 1017.1
20260905093008 51 274 0.0 1.0 0.00 0.00 0.00 70 1017.2
20260905092503 51 274 0.0 1.0 0.00 0.00 0.00 69 1017.1
20260905092004 51 274 0.0 1.0 0.00 0.00 0.00 68 1017.2
20260905091504 52 274 0.0 0.0 0.00 0.00 0.00 67 1017.2
20260905091005 52 274 0.0 0.0 0.00 0.00 0.00 67 1017.3
20260905090503 52 274 0.0 0.0 0.00 0.00 0.00 66 1017.3
20260905085503 52 274 0.0 1.0 0.00 0.00 0.00 65 1017.3
20260905085005 52 274 0.0 1.0 0.00 0.00 0.00 66 1017.3
20260905084504 52 274 0.0 1.0 0.00 0.00 0.00 66 1017.3
20260905084003 52 273 0.0 1.0 0.00 0.00 0.00 65 1017.4
20260905083503 53 273 0.0 1.0 0.00 0.00 0.00 65 1017.4
20260905082503 53 272 0.0 0.0 0.00 0.00 0.00 64 1017.5
20260905082004 53 272 0.0 1.0 0.00 0.00 0.00 64 1017.5
20260905081505 53 272 0.0 1.0 0.00 0.00 0.00 64 1017.5
20260905081003 53 272 0.0 1.0 0.00 0.00 0.00 64 1017.5
20260905080500 53 272 0.0 1.0 0.00 0.00 0.00 63 1017.5
20260905080009 53 272 0.0 1.0 0.00 0.00 0.00 63 1017.5
20260905075503 53 272 0.0 1.0 0.00 0.00 0.00 63 1017.5
20260905075001 53 272 0.0 1.0 0.00 0.00 0.00 63 1017.5
20260905074503 53 272 0.0 1.0 0.00 0.00 0.00 63 1017.5
20260905074004 53 272 0.0 1.0 0.00 0.00 0.00 63 1017.4
20260905073503 53 271 0.0 1.0 0.00 0.00 0.00 64 1017.4
20260905073000 53 270 0.0 1.0 0.00 0.00 0.00 64 1017.4
20260905072502 53 271 0.0 0.0 0.00 0.00 0.00 64 1017.3
20260905072004 53 271 0.0 1.0 0.00 0.00 0.00 63 1017.3
20260905071003 54 271 0.0 1.0 0.00 0.00 0.00 63 1017.1
20260905070502 54 271 0.0 1.0 0.00 0.00 0.00 63 1017.2
20260905070000 54 271 0.0 0.0 0.00 0.00 0.00 62 1017.2
20260905065501 54 271 0.0 0.0 0.00 0.00 0.00 62 1017.2
20260905065003 54 271 0.0 1.0 0.00 0.00 0.00 62 1017.1
20260905064503 54 271 0.0 1.0 0.00 0.00 0.00 62 1017.2
20260905064004 54 246 0.0 1.0 0.00 0.00 0.00 62 1017.1
20260905063505 55 246 0.0 1.0 0.00 0.00 0.00 62 1017.2
20260905062503 55 230 0.0 1.0 0.00 0.00 0.00 62 1017.2
20260905061503 55 229 0.0 0.0 0.00 0.00 0.00 62 1017.1
20260905061003 55 229 0.0 0.0 0.00 0.00 0.00 62 1017.2
20260905060503 54 229 0.0 0.0 0.00 0.00 0.00 62 1017.2
20260905060004 54 229 0.0 0.0 0.00 0.00 0.00 63 1017.1
20260905055502 54 229 0.0 0.0 0.00 0.00 0.00 63 1017.1
20260905055005 54 229 0.0 0.0 0.00 0.00 0.00 63 1017.1
20260905054503 54 229 0.0 0.0 0.00 0.00 0.00 63 1017.2
20260905054006 54 229 0.0 0.0 0.00 0.00 0.00 63 1017.2
20260905053504 54 229 0.0 0.0 0.00 0.00 0.00 63 1017.1
20260905053003 54 229 0.0 0.0 0.00 0.00 0.00 63 1017.2
20260905052505 54 229 0.0 0.0 0.00 0.00 0.00 63 1017.2
20260905052005 54 229 0.0 1.0 0.00 0.00 0.00 64 1017.3
20260905051504 54 229 0.0 1.0 0.00 0.00 0.00 63 1017.3
20260905050504 54 229 0.0 0.0 0.00 0.00 0.00 62 1017.2
20260905050007 54 229 0.0 0.0 0.00 0.00 0.00 62 1017.3
20260905045505 54 229 0.0 0.0 0.00 0.00 0.00 62 1017.3
20260905045006 54 229 0.0 0.0 0.00 0.00 0.00 62 1017.3
20260905044504 54 229 0.0 0.0 0.00 0.00 0.00 62 1017.3
20260905043006 54 229 0.0 0.0 0.00 0.00 0.00 63 1017.1
20260905042004 53 229 0.0 0.0 0.00 0.00 0.00 64 1017.1
20260905041504 53 229 0.0 0.0 0.00 0.00 0.00 64 1017.1
20260905041006 53 229 0.0 0.0 0.00 0.00 0.00 65 1017.1
20260905040008 53 229 0.0 0.0 0.00 0.00 0.00 65 1017.1
20260905035506 53 229 0.0 0.0 0.00 0.00 0.00 65 1017.1
20260905034502 52 229 0.0 1.0 0.00 0.00 0.00 66 1017.1
20260905034008 52 229 0.0 1.0 0.00 0.00 0.00 66 1017.0
20260905033004 52 229 0.0 0.0 0.00 0.00 0.00 65 1017.0
20260905032504 52 229 0.0 0.0 0.00 0.00 0.00 66 1016.8
20260905032010 52 229 0.0 0.0 0.00 0.00 0.00 66 1016.8
20260905031504 52 229 0.0 0.0 0.00 0.00 0.00 66 1016.7
20260905031006 52 229 0.0 0.0 0.00 0.00 0.00 65 1016.7
20260905030505 53 229 0.0 0.0 0.00 0.00 0.00 64 1016.6
20260905030009 53 229 0.0 0.0 0.00 0.00 0.00 64 1016.5
20260905025502 53 229 0.0 0.0 0.00 0.00 0.00 63 1016.6
20260905025006 54 229 0.0 0.0 0.00 0.00 0.00 63 1016.6
20260905024505 54 229 0.0 0.0 0.00 0.00 0.00 62 1016.6
20260905023503 55 229 0.0 1.0 0.00 0.00 0.00 61 1016.5
20260905023006 55 229 0.0 1.0 0.00 0.00 0.00 61 1016.6
20260905022010 56 229 0.0 1.0 0.00 0.00 0.00 58 1016.6
20260905021506 57 229 0.0 1.0 0.00 0.00 0.00 56 1016.5
20260905021007 57 229 0.0 1.0 0.00 0.00 0.00 55 1016.5
20260905020007 58 126 0.0 5.0 0.00 0.00 0.00 54 1016.5
20260905015505 58 58 0.0 5.0 0.00 0.00 0.00 53 1016.5
20260905015005 59 156 0.0 1.0 0.00 0.00 0.00 53 1016.5
20260905014506 59 93 0.0 1.0 0.00 0.00 0.00 52 1016.6
20260905014006 60 109 0.0 3.0 0.00 0.00 0.00 52 1016.5
20260905013506 60 137 0.0 3.0 0.00 0.00 0.00 51 1016.5
20260905013004 60 119 1.0 3.0 0.00 0.00 0.00 52 1016.5
20260905012503 60 285 0.0 5.0 0.00 0.00 0.00 51 1016.5
20260905011007 61 87 1.0 2.0 0.00 0.00 0.00 50 1016.5
20260905010506 61 235 1.0 6.0 0.00 0.00 0.00 50 1016.5
20260905010010 61 108 1.0 6.0 0.00 0.00 0.00 49 1016.5
20260905005504 62 217 1.0 4.0 0.00 0.00 0.00 48 1016.5
20260905005004 62 158 1.0 4.0 0.00 0.00 0.00 47 1016.4
20260905004504 62 141 0.0 3.0 0.00 0.00 0.00 46 1016.5
20260905004006 62 261 0.0 4.0 0.00 0.00 0.00 46 1016.5
20260905003506 62 129 1.0 4.0 0.00 0.00 0.00 45 1016.5
20260905003007 63 169 1.0 4.0 0.00 0.00 0.00 45 1016.5
20260905002504 63 165 1.0 4.0 0.00 0.00 0.00 44 1016.5
20260905002006 63 80 1.0 5.0 0.00 0.00 0.00 43 1016.4
20260905001003 64 136 1.0 5.0 0.00 0.00 0.00 42 1016.3
20260905000505 65 235 2.0 5.0 0.00 0.00 0.00 44 1016.3
20260905000003 65 21 2.0 6.0 0.00 0.00 0.00 43 1016.3
20260904235505 65 182 2.0 7.0 0.00 0.00 0.00 45 1016.3
20260904235005 66 122 3.0 7.0 0.00 0.00 0.00 43 1016.4
20260904234507 67 184 2.0 9.0 0.00 0.00 0.00 44 1016.4
20260904233505 67 135 2.0 8.0 0.00 0.00 0.00 45 1016.3
20260904233006 66 225 3.0 9.0 0.00 0.00 0.00 46 1016.3
20260904232503 67 163 3.0 10.0 0.00 0.00 0.00 46 1016.4
20260904232004 67 111 3.0 10.0 0.00 0.00 0.00 47 1016.3
20260904231505 67 270 3.0 10.0 0.00 0.00 0.00 48 1016.2
20260904231005 67 124 3.0 10.0 0.00 0.00 0.00 48 1016.2
20260904230505 67 91 2.0 8.0 0.00 0.00 0.00 50 1016.3
20260904230010 68 88 2.0 7.0 0.00 0.00 0.00 50 1016.3
20260904225504 68 243 1.0 7.0 0.00 0.00 0.00 50 1016.5
20260904224504 67 222 2.0 8.0 0.00 0.00 0.00 53 1016.4
20260904224005 65 223 4.0 13.0 0.00 0.00 0.00 54 1016.5
20260904223502 66 195 3.0 13.0 0.00 0.00 0.00 51 1016.5
20260904222005 66 259 3.0 8.0 0.00 0.00 0.00 54 1016.5
20260904221505 65 286 2.0 8.0 0.00 0.00 0.00 56 1016.6
20260904221004 65 192 1.0 8.0 0.00 0.00 0.00 56 1016.6
20260904220508 65 120 1.0 7.0 0.00 0.00 0.00 56 1016.6
20260904220002 65 216 2.0 12.0 0.00 0.00 0.00 56 1016.7
20260904215500 64 146 3.0 10.0 0.00 0.00 0.00 56 1016.6